STARLINK-11535, 62595

Orbit data source: Space-Track

STARLINK-11535, 62595 is a payload satellite owned by SpaceX/Seattle (US) in LEO that was launched on Mon, 13 Jan 2025 UTC via an FALCON 9 launch vehicle from the Air Force Eastern Test Range (AFETR). Payloads include a variety of satellites, spacecraft, and rockets equipped with specific instruments for various scientific and technological missions. These include communications satellites like Starlink; space stations such as the ISS; scientific satellites like the Hubble; Earth observation satellites from companies like Planet Labs, Umbra, and HawkEye 360; GPS; miniature CubeSats for education and research; and military/defense satellites.

Loading next visibility...
STARLINK-11535 details
Identifier
62595, 2025-008J
Orbit
LEO
Last TLE update11 hours ago
Origin
Flag of USSpaceX/Seattle (US)
ManufacturerSpaceX/Seattle
MissionOperational spacecraft
Bus & MotorSTARLINK V2M, Unknown motor
Mass730 kg wet, ~700 kg dry
Launch date (UTC)
2025-01-13 (3 weeks ago)
Launch vehicle
FALCON 9
Launch site
Air Force Eastern Test Range (AFETR)
Object type
Payload
Rocket body
Debris
Shape & HBRUnknown
Radar Cross SectionLarge (>1 m²)

Expand to show TLE details & history

TLE from 11 hours ago
0 STARLINK-11535
1 62595U 25008J   25035.83335648 -.00010675  00000-0 -47621-4 0  9992
2 62595  43.0051   6.0410 0001423 257.3622  65.7538 15.82281219  4535
Epoch: 2025-02-04T20:00Z
Definitive object data (Epoch: 2025-02-04T20:00:01.999Z)
Latitude-24.32704°
Longitude-98.0154°
Altitude329.489 km
Speed7.712 km/s
True Right ascension22h 28m 54s
True Declination-24° 11' 24"
Sunlit
Object was in daylight at TLE epoch
Visualization TLE readout
Latitude4.35835°
Longitude-67.29618°
Altitude323.589 km
Speed7.716 km/s
Apparent Right ascension22h 59m 11s
Apparent Declination-19° 07' 34"
Sunlit
Object is in daylight
Visualization observer readout
Local Sidereal Time08:49:28
Azimuth297.202° NW
Elevation-55.274°
Doppler factor1
Orbital elements
Apogee altitude326.935 km
Perigee altitude325.027 km
Semi-major axis6,704.118 km
Eccentricity0.0001423
Inclination43.0051°
RAAN6.041°
Arg. of periapsis257.3622°
True anomaly65.76867°
Mean anomaly65.7538°
Eccentric anomaly65.76123°
Mean motion3.95395 °/min
BSTAR-0.000047621
Orbital period91.05 mins
Loading maneuver chart data...
Loading historical data...
Loading historical data...
Loading historical data...
Loading historical data...
Loading historical data...
Loading historical data...
Loading historical data...

STARLINK-11535 Visibility forecast

Observer location: undefined°, undefined

Span
Click to sort rows by Start time (UTC) header in descending order
Start Az.
Max El. time (UTC)
Max El. Az.
Max El.
End time (UTC)
End Az.
4 mins2025-02-06 01:10:14.576Z210.695° SW2025-02-06 01:12:14.576Z126.717° SE28.461°2025-02-06 01:14:14.576Z84.465° E
4 mins2025-02-06 04:21:14.576Z302.758° NW2025-02-06 04:22:14.576Z333.643° NNW32.242°2025-02-06 04:25:14.576Z81.129° E
|